Starlink 32092

operational
NORAD ID: 59700 Int'l Des: 2024-086 Owner: SPXS Country: US Constellation: starlink
LEOCIRCULAR

About Starlink 32092

Description loading...

Live Position

Loading 3D Globe...

Upcoming Passes

Altitude History

Altitude vs Time

uPlot chart will show altitude changes over time

Two-Line Element Set

1 59700U 24086U 25257.49084655 -.00000356 00000-0 -34259-5 0 9997
2 59700 43.0020 335.0710 0001231 258.7895 101.2818 15.27570261 77160
Epoch: Sep 14, 2025 • Age: 16 hours

Current Status

Altitude 485.4 km
Velocity 7.63 km/s
Sub-Earth Point 36.23°N, 45.53°E
Launch Date May 8, 2024
Age 1.3 years
Type internet

Technical Details

Classification Payload
Mass 730.00 kg
Dry Mass 700.00 kg
Total Mass 730.00 kg
Length 0.30 m
Diameter 4.10 m
Span 29.00 m
Shape Box + pan
Manufacturer SPXS
Bus Type Starlink V2M
Phase Status In Orbit
Owner/State SPXS/US

Large Constellations

Loading constellations...